Stations météo

réclame
Mon MeteoGroup
Nancy/Essey, France (7180): Température de l'air & dewpoint: 22.02.2020 19:00:00 - 28.02.2020 19:00:00 (CET)Nancy/Essey, France (7180): Température de l'air 5cm: 22.02.2020 19:00:00 - 28.02.2020 19:00:00 (CET)Nancy/Essey, France (7180): Température de l'air -20cm & Température de l'air -100cm: 22.02.2020 19:00:00 - 28.02.2020 19:00:00 (CET)Nancy/Essey, France (7180): Vitesse du vent & gusts: 22.02.2020 19:00:00 - 28.02.2020 19:00:00 (CET)Nancy/Essey, France (7180): Direction du vent: 22.02.2020 19:00:00 - 28.02.2020 19:00:00 (CET)Nancy/Essey, France (7180): reduced air pressure: 22.02.2020 19:00:00 - 28.02.2020 19:00:00 (CET)Nancy/Essey, France (7180): visibility: 22.02.2020 19:00:00 - 28.02.2020 19:00:00 (CET)Nancy/Essey, France (7180): Ensoleillement: 22.02.2020 19:00:00 - 28.02.2020 19:00:00 (CET)Nancy/Essey, France (7180): Quantités de précipitations: 22.02.2020 19:00:00 - 28.02.2020 19:00:00 (CET)
Date & Time tt [°C] td [°C] tt 5cm [°C] tt -20cm [°C] tt -100cm [°C] ff [km/h] ff [knt] fx [km/h] fx [knt] dd ppp [hPa] vv [km] sd [min] rr [mm]
28.02.2020 19:00:00 - - - - - - - - - - - - - -
28.02.2020 18:00:00 7,9 -1,6 6,9 6,1 7,9 14 8 29 16 S 1014,7 60 0 0,0
28.02.2020 17:00:00 8,3 -2,1 7,9 6,0 7,9 16 9 38 20 S 1015,7 60 15 0,0
28.02.2020 16:00:00 8,6 -2,7 9,0 5,9 7,9 22 12 36 19 SSW 1016,7 60 8 0,0
28.02.2020 15:00:00 8,4 -1,7 9,4 5,9 7,9 18 10 37 20 S 1017,5 47 15 0,0
28.02.2020 14:00:00 7,6 -1,1 9,7 5,8 7,9 23 12 34 19 S 1018,8 60 38 0,0
28.02.2020 13:00:00 7,8 0,3 10,7 5,9 7,9 22 12 39 21 S 1020,1 31 57 0,0
28.02.2020 12:00:00 7,0 0,2 9,6 5,9 7,9 18 10 32 17 SSW 1021,0 34 58 0,0
28.02.2020 11:00:00 5,5 1,0 9,3 5,9 8,0 15 8 26 14 S 1021,8 32 60 0,0
28.02.2020 10:00:00 4,0 0,3 5,2 6,0 8,0 12 6 19 10 S 1022,1 26 60 0,0
28.02.2020 09:00:00 2,3 -0,5 2,3 6,0 8,0 12 6 20 11 S 1022,6 29 55 0,0
28.02.2020 08:00:00 0,9 -1,0 -4,9 6,1 8,0 6 3 16 9 S 1022,3 20 16 0,0
28.02.2020 07:00:00 -1,8 -2,6 -5,2 6,1 7,9 8 4 9 5 SE 1022,0 15 0 0,0
28.02.2020 06:00:00 0,8 -1,3 -2,1 6,1 7,9 6 3 16 8 WSW 1021,0 29 0 0,0
28.02.2020 05:00:00 0,7 -1,4 -1,9 6,2 8,0 3 1 18 10 SE 1020,1 36 0 0,0
28.02.2020 04:00:00 1,8 -0,9 0,1 6,2 8,0 9 5 22 12 WSW 1019,5 47 0 0,0
28.02.2020 03:00:00 2,3 -1,1 1,0 6,3 8,0 11 6 31 17 WSW 1019,0 60 0 0,0
28.02.2020 02:00:00 2,8 -0,8 1,5 6,3 8,0 16 9 31 17 W 1018,3 56 0 0,0
28.02.2020 01:00:00 3,1 -0,4 1,9 6,3 8,0 14 8 37 20 W 1017,0 40 0 0,0
28.02.2020 00:00:00 3,3 0,0 2,3 6,4 8,0 16 9 41 22 W 1015,5 37 0 0,0
27.02.2020 23:00:00 3,7 0,0 2,7 6,4 8,0 21 12 57 31 WNW 1013,7 59 0 0,0
27.02.2020 22:00:00 3,8 0,8 2,2 6,4 8,0 27 15 62 34 W 1012,1 45 0 0,2
27.02.2020 21:00:00 4,0 -0,4 3,4 6,4 8,0 27 15 58 31 W 1009,6 60 0 0,0
27.02.2020 20:00:00 3,7 -0,1 3,2 6,4 8,0 27 15 62 33 W 1007,2 60 0 0,0
27.02.2020 19:00:00 3,6 -0,1 3,0 6,4 8,0 33 18 72 39 W 1003,8 60 0 0,0
27.02.2020 18:00:00 3,6 -0,1 3,3 6,4 8,0 35 19 88 47 W 999,7 60 0 0,0
27.02.2020 17:00:00 5,4 1,9 5,0 6,4 8,0 48 26 99 53 WNW 994,3 58 0 2,6
27.02.2020 16:00:00 6,9 5,4 5,9 6,4 8,0 27 15 61 33 SSW 989,5 11 6 0,2
27.02.2020 15:00:00 5,7 4,0 3,1 6,5 8,0 32 17 63 34 SSW 990,8 8 20 0,4
27.02.2020 14:00:00 3,1 1,9 0,5 6,6 8,0 25 13 55 30 SSW 993,0 7 0 1,2
27.02.2020 13:00:00 1,1 0,4 0,1 6,6 8,0 21 11 39 21 SSE 995,9 2,9 0 1,8
27.02.2020 12:00:00 0,8 0,2 0,1 6,6 8,0 19 10 47 25 SE 998,2 2,8 0 2,0
27.02.2020 11:00:00 2,6 0,5 1,9 6,7 8,0 24 13 44 24 S 1001,2 9 0 0,2
27.02.2020 10:00:00 3,1 0,5 2,6 6,7 8,0 20 11 41 22 S 1004,0 31 0 0,0
27.02.2020 09:00:00 2,7 0,1 1,8 6,7 8,0 20 11 35 19 S 1005,9 45 0 0,0
27.02.2020 08:00:00 2,0 0,2 1,3 6,8 8,0 21 12 35 19 S 1007,7 35 0 0,0
27.02.2020 07:00:00 1,8 0,2 0,6 6,8 8,0 18 10 32 17 S 1008,8 39 0 0,0
27.02.2020 06:00:00 1,8 0,2 0,7 6,9 8,0 9 5 18 10 SSE 1009,8 45 0 0,0
27.02.2020 05:00:00 2,4 0,1 1,2 6,9 8,0 11 6 25 13 SSW 1010,5 49 0 0,0
27.02.2020 04:00:00 2,4 0,1 1,0 7,0 8,0 13 7 31 17 SSW 1011,2 51 0 0,0
27.02.2020 03:00:00 2,4 0,3 1,0 7,0 8,0 11 6 25 14 SW 1011,9 40 0 0,0
27.02.2020 02:00:00 2,3 0,5 1,3 7,0 8,0 10 5 21 12 S 1012,2 36 0 0,2
27.02.2020 01:00:00 3,0 0,7 1,3 7,1 8,0 10 6 20 11 SW 1012,4 51 0 0,0
27.02.2020 00:00:00 2,6 0,5 1,5 7,1 8,0 10 5 24 13 SW 1012,4 56 0 0,0
26.02.2020 23:00:00 2,9 0,8 1,6 7,2 8,0 9 5 21 12 SSW 1012,3 59 0 0,0
26.02.2020 22:00:00 2,4 0,9 0,9 7,2 8,0 6 4 19 10 S 1012,1 34 0 0,0
26.02.2020 21:00:00 2,4 0,9 1,3 7,2 8,0 8 4 35 19 W 1011,7 19 0 0,4
26.02.2020 20:00:00 2,7 0,6 0,3 7,2 7,9 6 3 24 13 SSW 1011,3 60 0 0,0
26.02.2020 19:00:00 1,4 0,2 -0,6 7,2 8,0 5 3 24 13 SSE 1010,7 42 0 0,0
26.02.2020 18:00:00 3,1 0,2 1,7 7,2 7,9 13 7 38 20 WSW 1009,5 60 22 0,0
26.02.2020 17:00:00 2,5 0,2 1,5 7,2 7,9 21 11 61 33 W 1008,9 50 0 0,2
26.02.2020 16:00:00 5,8 -1,1 6,6 7,2 7,9 26 14 49 26 W 1007,4 28 50 0,0
26.02.2020 15:00:00 6,0 -0,1 5,8 7,2 7,9 21 11 49 26 W 1006,8 27 43 0,0
26.02.2020 14:00:00 4,9 -0,1 4,2 7,2 7,9 21 12 47 25 W 1006,5 29 19 0,0
26.02.2020 13:00:00 3,9 -0,3 3,6 7,2 7,9 22 12 44 24 W 1006,1 51 6 0,0
26.02.2020 12:00:00 3,7 0,6 4,5 7,3 7,9 21 12 50 27 W 1005,6 59 34 0,0
26.02.2020 11:00:00 4,2 0,3 2,6 7,4 7,9 22 12 47 26 W 1004,6 60 37 0,0
26.02.2020 10:00:00 2,5 -0,1 1,0 7,4 7,9 20 11 44 24 W 1003,9 60 0 0,2
26.02.2020 09:00:00 1,5 -0,3 0,0 7,5 7,9 18 10 34 18 W 1002,8 60 0 1,8
26.02.2020 08:00:00 1,0 0,0 0,0 7,6 7,9 21 11 46 25 W 1002,4 1,5 0 1,0
26.02.2020 07:00:00 2,1 0,6 1,1 7,7 7,9 20 11 40 22 WSW 1001,5 7 0 0,8
26.02.2020 06:00:00 2,8 -0,5 1,8 7,7 7,9 19 10 46 25 SW 1001,6 60 0 0,0
26.02.2020 05:00:00 3,1 -0,7 1,7 7,8 7,9 26 14 51 27 WSW 1001,8 60 0 0,0
26.02.2020 04:00:00 3,2 0,6 2,0 7,9 7,9 22 12 55 30 SW 1002,2 20 0 0,0
26.02.2020 03:00:00 3,6 0,1 2,6 7,9 7,9 22 12 50 27 WSW 1002,3 60 0 0,0
26.02.2020 02:00:00 3,5 0,4 2,5 8,0 7,9 28 15 56 31 WSW 1002,3 60 0 0,0
26.02.2020 01:00:00 3,2 1,2 1,8 8,1 7,9 21 11 44 24 WSW 1001,8 60 0 0,2
26.02.2020 00:00:00 2,5 1,3 1,4 8,1 7,8 14 8 32 17 WSW 1001,9 14 0 2,8
25.02.2020 23:00:00 3,7 1,7 2,5 8,2 7,9 24 13 52 28 SW 1002,1 3,7 0 1,6
25.02.2020 22:00:00 4,1 2,1 1,6 8,2 7,8 15 8 27 14 SW 1002,2 60 0 0,0
25.02.2020 21:00:00 2,9 1,7 2,0 8,2 7,8 10 6 59 32 WSW 1003,4 59 0 3,4
25.02.2020 20:00:00 7,0 2,5 5,4 8,2 7,8 18 10 41 22 SW 1002,9 19 0 0,0
25.02.2020 19:00:00 7,0 2,5 5,4 8,2 7,9 18 10 33 18 SW 1003,2 60 0 0,0
25.02.2020 18:00:00 7,3 3,9 5,5 8,2 7,8 19 10 40 21 SW 1003,2 60 11 0,8
25.02.2020 17:00:00 8,5 3,9 8,0 8,1 7,8 20 11 35 19 SSW 1003,7 60 24 0,0
25.02.2020 16:00:00 8,6 3,6 7,6 8,2 7,8 18 10 39 21 WSW 1004,6 55 1 0,0
25.02.2020 15:00:00 7,8 5,8 6,7 8,1 7,9 14 8 44 24 WSW 1004,9 20 0 0,4
25.02.2020 14:00:00 8,7 5,8 8,1 8,1 7,8 17 9 34 18 WSW 1005,4 55 1 0,2
25.02.2020 13:00:00 8,0 5,8 8,0 8,1 7,8 15 8 39 21 W 1006,4 14 0 0,2
25.02.2020 12:00:00 8,5 6,5 8,4 8,1 7,8 18 10 39 21 W 1006,7 13 0 0,6
25.02.2020 11:00:00 8,7 7,1 7,7 8,1 7,8 19 10 46 25 SW 1006,9 8 0 0,2
25.02.2020 10:00:00 8,2 6,5 7,3 8,1 7,8 23 12 43 23 SSW 1007,1 13 0 0,8
25.02.2020 09:00:00 7,9 6,2 6,8 8,2 7,8 22 12 41 22 SSW 1007,7 15 0 0,7
25.02.2020 08:00:00 7,6 5,9 6,6 8,2 7,8 20 11 39 21 SSW 1008,1 10 0 1,2
25.02.2020 07:00:00 7,4 5,9 6,5 8,2 7,8 20 11 36 20 SW 1008,7 8 0 1,6
25.02.2020 06:00:00 7,3 5,6 6,5 8,2 7,8 16 9 37 20 SW 1009,2 7 0 1,8
25.02.2020 05:00:00 7,6 5,6 6,6 8,2 7,7 20 11 37 20 SW 1009,7 16 0 0,8
25.02.2020 04:00:00 8,3 5,2 7,9 8,2 7,7 22 12 38 20 SW 1010,1 60 0 0,0
25.02.2020 03:00:00 8,6 5,0 8,2 8,3 7,8 21 11 35 19 SW 1010,7 60 0 0,0
25.02.2020 02:00:00 8,9 4,7 8,4 8,3 7,7 20 11 40 21 SW 1011,4 60 0 0,0
25.02.2020 01:00:00 9,2 4,6 8,5 8,3 7,7 18 10 38 20 WSW 1011,8 60 0 0,0
25.02.2020 00:00:00 9,5 4,7 8,9 8,3 7,7 16 9 36 20 SW 1012,8 60 0 0,0
24.02.2020 23:00:00 9,5 4,9 8,2 8,3 7,7 19 11 35 19 SSW 1013,4 60 0 0,0
24.02.2020 22:00:00 9,7 5,1 8,2 8,4 7,8 14 8 34 18 SSW 1014,2 60 0 0,0
24.02.2020 21:00:00 10,6 5,8 9,4 8,3 7,7 19 10 37 20 WSW 1014,9 60 0 0,0
24.02.2020 20:00:00 11,8 7,1 10,3 8,2 7,7 10 6 29 16 W 1014,4 60 0 0,0
24.02.2020 19:00:00 13,4 6,3 10,7 8,2 7,7 11 6 29 16 WSW 1013,8 60 0 0,0
24.02.2020 18:00:00 13,9 8,5 12,5 8,1 7,7 18 10 35 19 SSW 1013,3 55 10 0,0
24.02.2020 17:00:00 15,1 9,0 15,2 8,0 7,7 26 14 43 23 SSW 1013,9 51 52 0,0
24.02.2020 16:00:00 15,6 8,1 15,1 7,9 7,7 21 12 44 24 SW 1014,9 27 49 0,0
24.02.2020 15:00:00 14,0 9,4 13,9 7,9 7,7 21 11 48 26 SSW 1016,5 60 4 0,0
24.02.2020 14:00:00 13,1 8,8 13,5 7,8 7,7 24 13 42 23 SSW 1018,0 56 25 0,0
24.02.2020 13:00:00 12,6 9,1 12,6 7,8 7,7 25 14 43 23 SSW 1019,4 55 2 0,0
24.02.2020 12:00:00 11,8 9,0 11,7 7,8 7,7 26 14 45 24 SSW 1021,0 42 3 0,0
24.02.2020 11:00:00 11,4 9,3 11,1 7,8 7,7 21 11 41 22 SSW 1021,9 58 5 0,0
24.02.2020 10:00:00 10,5 8,6 8,9 7,8 7,7 12 6 29 16 SSW 1022,7 60 0 0,0
24.02.2020 09:00:00 8,6 8,3 6,8 7,7 7,7 10 5 22 12 SW 1023,8 11 0 0,0
24.02.2020 08:00:00 6,7 6,3 6,4 7,8 7,7 6 3 9 5 NNE 1024,6 7 0 0,0
24.02.2020 07:00:00 6,5 6,1 6,4 7,8 7,7 7 4 18 10 ENE 1025,0 2,4 0 0,2
24.02.2020 06:00:00 6,7 6,3 6,6 7,7 7,7 11 6 16 9 ENE 1025,7 1,7 0 0,2
24.02.2020 05:00:00 8,7 8,2 8,3 7,7 7,7 5 3 9 5 S 1025,7 1,9 0 0,4
24.02.2020 04:00:00 8,8 8,3 8,5 7,7 7,7 6 3 9 5 SW 1026,0 2,4 0 0,2
24.02.2020 03:00:00 9,0 8,4 8,6 7,7 7,7 4 2 11 6 WSW 1026,3 4,6 0 0,2
24.02.2020 02:00:00 9,2 8,3 8,7 7,6 7,7 6 3 20 11 WSW 1026,4 4,6 0 0,2
24.02.2020 01:00:00 9,7 8,3 8,9 7,7 7,7 15 8 34 18 WNW 1026,5 4,6 0 1,2
24.02.2020 00:00:00 11,3 9,7 10,3 7,6 7,7 18 10 36 20 WSW 1025,5 7 0 0,0
23.02.2020 23:00:00 11,2 9,8 10,4 7,6 7,7 19 10 44 24 WSW 1025,1 5 0 0,2
23.02.2020 22:00:00 11,4 9,6 10,4 7,5 7,7 22 12 55 30 WSW 1024,9 7 0 0,0
23.02.2020 21:00:00 12,3 8,9 11,8 7,5 7,7 24 13 59 32 WSW 1023,9 60 0 0,0
23.02.2020 20:00:00 12,6 8,7 11,8 7,4 7,7 28 15 59 32 WSW 1023,7 60 0 0,0
23.02.2020 19:00:00 12,6 8,5 11,9 7,4 7,7 25 13 60 32 WSW 1023,4 60 0 0,0
23.02.2020 18:00:00 12,4 8,3 11,9 7,3 7,7 29 16 61 33 WSW 1022,3 60 0 0,0
23.02.2020 17:00:00 12,4 8,1 12,1 7,2 7,7 29 16 66 36 WSW 1022,8 60 0 0,0
23.02.2020 16:00:00 12,7 8,0 12,3 7,1 7,7 26 14 63 34 WSW 1022,3 56 0 0,0
23.02.2020 15:00:00 12,7 8,0 12,6 7,1 7,7 29 16 64 35 SW 1022,2 59 0 0,0
23.02.2020 14:00:00 12,8 8,1 13,0 7,0 7,7 26 14 63 34 SW 1022,9 47 0 0,0
23.02.2020 13:00:00 13,1 8,2 14,0 7,0 7,7 28 15 64 35 SW 1022,8 55 23 0,0
23.02.2020 12:00:00 12,8 8,3 12,2 6,9 7,7 30 16 55 30 SW 1023,6 49 1 0,0
23.02.2020 11:00:00 11,7 7,6 10,4 6,9 7,7 24 13 51 27 SW 1023,8 59 0 0,0
23.02.2020 10:00:00 10,5 6,6 9,5 6,9 7,7 21 11 46 25 SSW 1024,3 60 0 0,0
23.02.2020 09:00:00 9,6 6,3 9,2 6,9 7,7 25 14 45 25 S 1024,6 58 0 0,0
23.02.2020 08:00:00 9,7 6,6 8,6 6,9 7,7 27 14 43 23 SSW 1025,1 60 0 0,0
23.02.2020 07:00:00 9,1 6,7 8,2 6,9 7,7 13 7 37 20 SSW 1026,2 60 0 0,0
23.02.2020 06:00:00 9,0 6,6 7,6 6,9 7,7 18 10 32 18 SSW 1026,4 55 0 0,0
23.02.2020 05:00:00 8,5 6,6 7,6 6,8 7,7 16 9 32 17 S 1026,5 44 0 0,0
23.02.2020 04:00:00 8,8 6,9 7,7 6,8 7,7 12 6 21 12 SSW 1028,0 41 0 0,2
23.02.2020 03:00:00 9,1 6,7 7,9 6,8 7,7 13 7 30 16 SW 1028,5 19 0 0,2
23.02.2020 02:00:00 9,4 6,3 8,1 6,8 7,7 13 7 32 17 SW 1029,0 54 0 0,0
23.02.2020 01:00:00 9,4 6,1 7,8 6,8 7,7 16 9 36 19 SSW 1028,7 44 0 0,0
23.02.2020 00:00:00 9,1 5,6 7,5 6,7 7,7 14 8 27 15 SSW 1029,0 31 0 0,2
22.02.2020 23:00:00 9,5 5,5 7,7 6,7 7,7 13 7 26 14 SSW 1029,7 38 0 0,0
22.02.2020 22:00:00 9,7 5,1 7,6 6,7 7,7 12 7 31 17 SW 1030,2 32 0 0,2
22.02.2020 21:00:00 10,5 3,7 8,5 6,6 7,7 16 8 37 20 SW 1029,6 60 0 0,0
22.02.2020 20:00:00 12,0 1,0 11,0 6,6 7,7 17 9 33 18 SW 1028,9 60 0 0,0
22.02.2020 19:00:00 12,2 0,6 10,9 6,5 7,7 9 5 29 16 SSW 1028,1 60 0 0,0

tt = Température de l'air
td = dewpoint
tt 5cm = Température de l'air 5cm
tt -20cm = Température de l'air -20cm
tt -100cm = Température de l'air -100cm
ff = Vitesse du vent
fx = gusts
dd = Direction du vent
ppp = reduced air pressure
vv = visibility
sd = Ensoleillement
rr = Quantités de précipitations

stations d'obs. à proximité